Home > Time Zones > World Clock > Weather > U.S.A. > Knox > Past weeks

Flag for U.S.A. Weather past 2 weeks in Knox, Indiana, U.S.A.

Now
50 °F

Sunny.


Feels Like: 47 °F
Forecast: 38 / 51 °F
Wind: 8 mph from North

Location: Porter County Municipal Airport

Current Time: Mar 31, 2015 at 5:29:53 PM

Latest Report: Mar 31, 2015 at 3:56 PM


Visibility: 10 mi

Pressure: 29.97 "Hg

Humidity: 52%

Dew point: 33 °F

Location of KnoxLocation

Historic Weather in Knox — Graph

°F

Knox temperature yesterday

Maximum temperature yesterday: 59 °F (at 2:56 PM)
Minimum temperature yesterday: 31 °F (at 4:56 AM)
Average temperature yesterday: 47 °F

Past Weeks' High & Low Weather Summary

 TemperatureHumidityPressure
High71 °F (Mar 16, 4:56 PM)100% (Mar 20, 5:56 AM)30.38 "Hg (Mar 20, 5:56 AM)
Low13 °F (Mar 24, 4:56 AM)21% (Mar 18, 2:56 PM)29.70 "Hg (Mar 31, 2:56 AM)
Average36 °F66%30.14 "Hg
* Reported Mar 16 3:56 PM — Mar 31 3:56 PM, Knox, Weather by CustomWeather, © 2015

Note: Actual official high and low records may vary slightly from our data, if they occured in-between our weather recording intervals... More about our weather records

Advertising

Knox weather history for previous 24 hours

 ConditionsComfort  
Time TempWeatherWind HumidityBarometerVisibility
3:56 PM
Tue, Mar 31
50 °FSunny.8 mph52%29.97 "Hg10 mi
2:56 PM49 °FPassing clouds.8 mph57%29.97 "Hg10 mi
1:56 PM47 °FPartly sunny.12 mph64%29.97 "Hg10 mi
12:56 PM46 °FOvercast.12 mph66%29.96 "Hg10 mi
11:56 AM45 °FPartly sunny.14 mph68%29.94 "Hg10 mi
10:56 AM42 °FMostly cloudy.14 mph82%29.93 "Hg10 mi
9:56 AM42 °FMostly cloudy.15 mph85%29.89 "Hg10 mi
8:56 AM37 °FFog.10 mph96%29.87 "Hg1 mi
7:56 AM36 °FFog.10 mph100%29.83 "Hg1 mi
6:56 AM40 °FSunny.9 mph83%29.79 "Hg10 mi
5:56 AM46 °FClear.14 mph61%29.74 "Hg10 mi
4:56 AM48 °FClear.15 mph56%29.71 "Hg10 mi
3:56 AM49 °FPassing clouds.15 mph57%29.71 "Hg10 mi
2:56 AM50 °FPassing clouds.15 mph54%29.70 "Hg10 mi
1:56 AM50 °FClear.15 mph52%29.74 "Hg10 mi
12:56 AM49 °FClear.14 mph57%29.78 "Hg10 mi
11:56 PM
Mon, Mar 30
49 °FOvercast.14 mph57%29.82 "Hg10 mi
10:56 PM47 °FClear.7 mph61%29.86 "Hg10 mi
9:56 PM47 °FPassing clouds.9 mph64%29.91 "Hg10 mi
8:56 PM47 °FPassing clouds.7 mph61%29.93 "Hg10 mi
7:56 PM51 °FMostly cloudy.9 mph52%29.96 "Hg10 mi
6:56 PM56 °FOvercast.No wind39%29.96 "Hg10 mi
5:56 PM57 °FOvercast.7 mph39%29.96 "Hg10 mi
Weather by CustomWeather, © 2015

See weather overviewHow to use our weather pages